Regional Weather Roundup
Issued by NWS Binghamton, NY

Home | Current Version | Previous Version | Text Only | Print | Product List | Glossary On
Versions: 1 2 3 4 5 6 7 8 9 10 11 12 13 14 15 16 17 18 19 20 21 22 23 24 25 26 27 28 29 30 31 32 33 34 35 36 37 38 39 40 41 42 43 44 45 46 47 48 49 50
000
ASUS41 KBGM 291010
RWRBGM

REGIONAL WEATHER ROUNDUP
NATIONAL WEATHER SERVICE BINGHAMTON NY
600 AM EDT SUN MAR 29 2020

Note: "fair" indicates few or no clouds below 12,000 feet with no
significant weather and/or obstructions to visibility.

* = Station(s) that does not report precipitation, such as rain,
snow, etc, also no thunder or fog.

NYZ009-015>018-022>025-036-037-044>046-055>057-062-291100
...Central New York...

CITY           SKY/WX    TMP DP  RH WIND       PRES   REMARKS
Binghamton     LGT RAIN  40  39  97 SE10      29.90R WCI  33
Cortland       HVY RAIN  41  41 100 SE5       29.91S
Dansville      LGT RAIN  51  48  89 SE10      29.83R
Elmira         LGT RAIN  46  44  93 CALM      29.90R
Endicott       DRIZZLE   43  43 100 CALM      29.92S
Ithaca         LGT RAIN  43  43 100 S9        29.90
Hamilton       CLOUDY    43  43 100 S8        29.92R
Monticello     CLOUDY    40  32  73 E12G21    29.98F WCI  33
Norwich        CLOUDY    43  43 100 S5        29.94S
Oneonta        PTCLDY    41  41 100 CALM      29.93S
Penn Yan       HVY RAIN  47  44  90 S8        29.85F FOG
Rome           CLOUDY    44  40  85 E14       29.95F
Seneca Falls   LGT RAIN  45  43  93 S13       29.88R
Sidney         CLOUDY    43  43 100 CALM      29.95R FOG
Skaneateles    CLOUDY    45  43  93 E8        29.87S
Syracuse       LGT RAIN  43  40  89 E10       29.90S
$$

PAZ038>040-043-044-047-048-072-291100
...Northeast Pennsylvania...

CITY           SKY/WX    TMP DP  RH WIND       PRES   REMARKS
Hazleton       FOG       43  41  93 E8        29.95R VSB 1
Scranton       CLOUDY    46  40  79 NE5       29.94R
Towanda        CLOUDY    45  45 100 E3        29.93S
$$
&&
KEY
WCI = Wind Chill Index
VSB = Visibility
HX  = Heat Index
$$



USA.gov is the U.S. government's official web portal to all federal, state and local government web resources and services.